WIZ985 LPPR-LPPT

Flight info

Callsign WIZ985
Flight time N/A
Altitude 29000
Route MANIK2R MANIK DCT ABRIL DCT XAMAX XAMAX2A
Aircraft A321/H-SDE1FGHILORVWXY/L

Departure

Time 2026-05-06 22:13
Airport Francisco de Sá Carneiro Airport (LPPR)

Arrival

Time N/A
Airport Lisbon Humberto Delgado Airport (LPPT)
Time Latitude Longitude Altitude Speed Heading
2026-05-06 21:50 41.23922 -8.67318 245 ft 0 kts 123°
2026-05-06 22:05 41.23924 -8.67321 245 ft 3 kts 124°
2026-05-06 22:06 41.23939 -8.67350 244 ft 4 kts 129°
2026-05-06 22:06 41.23957 -8.67377 243 ft 4 kts 135°
2026-05-06 22:06 41.23978 -8.67400 242 ft 4 kts 146°
2026-05-06 22:06 41.24001 -8.67415 242 ft 4 kts 174°
2026-05-06 22:07 41.24012 -8.67416 242 ft 0 kts 192°
2026-05-06 22:09 41.24009 -8.67417 242 ft 2 kts 192°
2026-05-06 22:09 41.23974 -8.67437 241 ft 9 kts 211°
2026-05-06 22:09 41.23901 -8.67485 239 ft 14 kts 190°
2026-05-06 22:10 41.23795 -8.67467 239 ft 17 kts 168°
2026-05-06 22:10 41.23665 -8.67433 238 ft 21 kts 169°
2026-05-06 22:10 41.23524 -8.67396 239 ft 21 kts 170°
2026-05-06 22:10 41.23411 -8.67364 240 ft 12 kts 171°
2026-05-06 22:11 41.23334 -8.67435 238 ft 16 kts 253°
2026-05-06 22:11 41.23321 -8.67508 236 ft 0 kts 258°
2026-05-06 22:11 41.23319 -8.67521 236 ft 4 kts 259°
2026-05-06 22:12 41.23311 -8.67574 239 ft 8 kts 259°
2026-05-06 22:12 41.23299 -8.67660 237 ft 10 kts 261°
2026-05-06 22:12 41.23334 -8.67737 238 ft 12 kts 341°
2026-05-06 22:12 41.23445 -8.67771 236 ft 34 kts 347°
2026-05-06 22:13 41.23937 -8.67898 222 ft 108 kts 348°
2026-05-06 22:13 41.24873 -8.68148 200 ft 164 kts 349°
2026-05-06 22:13 41.26043 -8.68417 685 ft 172 kts 350°
2026-05-06 22:13 41.27217 -8.68691 1442 ft 170 kts 349°
2026-05-06 22:14 41.28381 -8.68965 2160 ft 170 kts 351°
2026-05-06 22:14 41.29574 -8.69258 2509 ft 192 kts 349°
2026-05-06 22:14 41.30954 -8.69630 2835 ft 212 kts 348°
2026-05-06 22:14 41.32464 -8.70075 3348 ft 227 kts 347°
2026-05-06 22:15 41.34055 -8.70559 3798 ft 245 kts 348°
2026-05-06 22:15 41.35788 -8.71034 4288 ft 260 kts 349°
2026-05-06 22:15 41.37589 -8.71506 4999 ft 267 kts 349°
2026-05-06 22:15 41.39392 -8.72153 5722 ft 272 kts 333°
2026-05-06 22:16 41.40867 -8.73720 6437 ft 276 kts 306°
2026-05-06 22:16 41.41650 -8.76036 7121 ft 278 kts 278°
2026-05-06 22:16 41.41587 -8.78560 7823 ft 278 kts 256°
2026-05-06 22:16 41.41148 -8.81078 8578 ft 280 kts 247°
2026-05-06 22:17 41.40099 -8.83231 9314 ft 278 kts 220°
2026-05-06 22:17 41.38466 -8.84540 10061 ft 276 kts 195°
2026-05-06 22:17 41.36550 -8.84787 10545 ft 287 kts 173°
2026-05-06 22:17 41.34508 -8.84290 10707 ft 310 kts 169°
2026-05-06 22:18 41.32321 -8.83689 10830 ft 332 kts 168°
2026-05-06 22:18 41.30001 -8.83039 11098 ft 347 kts 168°
2026-05-06 22:18 41.27633 -8.82385 11569 ft 356 kts 169°
2026-05-06 22:18 41.25178 -8.81719 12124 ft 363 kts 169°
2026-05-06 22:19 41.22696 -8.81051 12802 ft 366 kts 169°
2026-05-06 22:19 41.20177 -8.80380 13381 ft 372 kts 169°
2026-05-06 22:19 41.17628 -8.79709 13997 ft 375 kts 169°
2026-05-06 22:19 41.15047 -8.79033 14565 ft 380 kts 169°
2026-05-06 22:20 41.12442 -8.78351 15154 ft 383 kts 169°
2026-05-06 22:20 41.09814 -8.77660 15734 ft 387 kts 170°
2026-05-06 22:20 41.07168 -8.76962 16347 ft 390 kts 170°
2026-05-06 22:20 41.04559 -8.76094 16942 ft 394 kts 163°
2026-05-06 22:21 41.01928 -8.75010 17552 ft 397 kts 164°
2026-05-06 22:21 40.99289 -8.73919 18206 ft 398 kts 165°